Regional Weather Roundup
Issued by NWS

Home | Current Version | Previous Version | Text Only | Print | Product List | Glossary Off
Versions: 1 2 3 4 5 6 7 8 9 10 11 12 13 14 15 16 17 18 19 20 21 22 23 24 25 26 27 28 29 30 31 32 33 34 35 36 37 38 39 40 41 42 43 44 45 46 47 48 49 50

521
ASUS46 KLOX 270803
RWRCA

SOUTHERN CALIFORNIA WEATHER ROUNDUP
NATIONAL WEATHER SERVICE OXNARD CALIFORNIA
100 AM PDT MON MAR 27 2017

NOTE: "FAIR" INDICATES FEW OR NO CLOUDS BELOW 12,000 FEET WITH NO
SIGNIFICANT WEATHER AND/OR OBSTRUCTIONS TO VISIBILITY.

  -  STATIONS PRECEEDED BY AN ASTERISK (*) ARE NOT NWS OR FAA
     STATIONS AND ARE NOT SUBJECT TO NWS AND FAA QUALITY CONTROL.

CAZ041-042-087-270900-
LA AND ORANGE COUNTY COASTAL AREAS


CITY           SKY/WX    TMP DP  RH WIND       PRES   REMARKS
L.A. DOWNTOWN  CLEAR     57  52  83 CALM      30.03S
L.A. AIRPORT   PTCLDY    58  53  84 W10       30.03S
LONG BEACH     CLEAR     57  49  74 CALM      30.03F

CITY           SKY/WX    TMP DP  RH WIND       PRES   REMARKS
AVALON           N/A     54 N/A N/A MISG        N/A
FULLERTON      CLEAR     57  50  77 CALM      30.02F
*GETTY CENTER    N/A     52  50  93 N2          N/A
HAWTHORNE      CLEAR     57  52  83 CALM      30.03F
*LEO CARRILLO    N/A     53  48  84 N3          N/A
*LOS ALAMITOS  FAIR      55  50  85 CALM      30.02F
*REDONDO BEACH   N/A     56  51  83 CALM      30.02S
SANTA ANA      CLEAR     58  54  86 SE3       30.02F
STA MONICA APT CLEAR     55  52  89 CALM      30.03S
*UCLA            N/A     54  50  87 N5        30.00R

$$

CAZ547-548-048-270900-
LA COUNTY VALLEYS AND INLAND EMPIRE


CITY           SKY/WX    TMP DP  RH WIND       PRES   REMARKS
BURBANK        CLEAR     56  50  80 E5        30.02S
VAN NUYS       PTCLDY    55  49  80 CALM      30.02S

CITY           SKY/WX    TMP DP  RH WIND       PRES   REMARKS
CORONA AIRPORT SUNNY     52  50  93 CALM      30.03F
*CHATSWORTH      N/A     54  47  79 CALM      30.04S
CHINO          CLEAR     54  50  86 CALM      30.03F
*CLAREMONT       N/A     49  47  93 CALM        N/A
MARCH AFB      MOCLDY    54  54 100 CALM      30.03S
ONTARIO        PTCLDY    54  51  90 CALM      30.02F
*PASADENA        N/A     55  54  94 E1          N/A
RIVERSIDE      CLEAR     55  52  89 CALM      30.02F
SAN BERNARDINO CLOUDY    57  50  78 W5        30.03F
*SAN RAFAEL HI   N/A     50  47  88 SW6         N/A
*SAUGUS          N/A     51  48  90 SE2         N/A
*WHITEMAN AP   NOT AVBL
*WHITTIER HILL   N/A     52  51  96 SW2         N/A
*WOODLAND HILL   N/A     52  46  82 SE1         N/A

$$

CAZ054-055-270900-
LA AND SAN BERNARDINO COUNTY MOUNTAINS


CITY           SKY/WX    TMP DP  RH WIND       PRES   REMARKS
*ACTON           N/A     49  41  74 SE2         N/A
*BIG BEAR AIRP SUNNY     36  30  80 CALM      30.07S
*BIG PINES       N/A     43  24  47 CALM        N/A
*CHILAO          N/A     42  40  93 SW3         N/A
SANDBERG       CLEAR     45  40  82 N22G30    30.07S
*WARM SPRINGS    N/A     47  38  70 W22G38      N/A

$$

CAZ028-029-059-060-099-270900-
ANTELOPE VALLEY AND SURROUNDING AREAS


CITY           SKY/WX    TMP DP  RH WIND       PRES   REMARKS
LANCASTER      CLEAR     52  41  66 W23       30.01S
PALMDALE       CLEAR     51  42  71 SW9       30.02S
*POPPY PARK      N/A     50  40  67 W23G37      N/A

CITY           SKY/WX    TMP DP  RH WIND       PRES   REMARKS
29 PALMS       PTCLDY    60  39  45 W13       29.99F
BARSTOW/DAGGET CLEAR     58  42  55 W18       29.93F
BISHOP         PTCLDY    40  28  62 N13       29.92R WCI  32
CHINA LAKE     CLEAR     57  33  40 N3        29.88F
EDWARDS AFB    CLEAR     51  37  58 SW10      29.96F
MOJAVE         CLEAR     54  39  58 N31G44    29.96R
NEEDLES        PTCLDY    69  34  27 CALM      29.84F
VICTORVILLE    CLEAR     50  41  71 SW7       30.00S

$$

CAZ039-040-270900-
VENTURA AND SANTA BARBARA COUNTY COAST


CITY           SKY/WX    TMP DP  RH WIND       PRES   REMARKS
CAMARILLO      CLEAR     53  49  86 S3        30.03S
NWS OXNARD       N/A     54  49  84 CALM      30.02S
OXNARD AIRPORT CLEAR     56  50  80 CALM      30.03S
*POINT MUGU    CLEAR     53  49  86 CALM      30.04S
SBA APT/GOLETA CLEAR     52  48  86 W8        30.04R
*SANTA BARBARA   N/A     58  46  64 CALM      30.11S
*VENTURA         N/A     52  49  89 NW1       30.01S

$$

CAZ044-045-270900-
VENTURA COUNTY VALLEYS


CITY           SKY/WX    TMP DP  RH WIND       PRES   REMARKS
*SIMI VALLEY     N/A     51  48  88 NE1       29.99S
*WESTLAKE VILL   N/A     46  43  89 CALM      30.02S
*OJAI            N/A     62  52  69 CALM      29.97R

$$

CAZ053-270900-
VENTURA COUNTY MOUNTAINS


CITY           SKY/WX    TMP DP  RH WIND       PRES   REMARKS
*LOCKWOOD VLY    N/A     36  32  87 MISG        N/A
*ROSE VALLEY     N/A     37  37 100 MISG        N/A

$$

CAZ034-035-036-270900-
CENTRAL COAST AND SANTA YNEZ VALLEY


CITY           SKY/WX    TMP DP  RH WIND       PRES   REMARKS
SAN LUIS OBISP CLOUDY    57  52  83 NW3       30.11S
SANTA MARIA    LGT RAIN  52  51  97 CALM      30.13R

CITY           SKY/WX    TMP DP  RH WIND       PRES   REMARKS
*LOMPOC        CLOUDY    51  49  92 CALM      30.12R
*PISMO BEACH     N/A     57  53  85 CALM      30.11S
*SANTA YNEZ    MOCLDY    46  45  93 CALM      30.10S

$$

CAZ037-038-051-270900-
SAN LUIS OBISPO COUNTY INTERIOR AND CUYAMA VALLEY


CITY           SKY/WX    TMP DP  RH WIND       PRES   REMARKS
*CUYAMA          N/A     46  43  88 CALM      30.06S
PASO ROBLES    CLOUDY    52  50  93 S5        30.09F

$$

CAZ032-033-061-270900-
SOUTHERN DESERTS


CITY           SKY/WX    TMP DP  RH WIND       PRES   REMARKS
BLYTHE         CLEAR     69  39  33 W3        29.85F
IMPERIAL       CLEAR     66  46  48 W14       29.86F
PALM SPRINGS   CLEAR     67  48  50 VRB6      29.89S
THERMAL        CLEAR     68  48  48 NW12      29.85F

$$

ELSEWHERE ACROSS THE WESTERN UNITED STATES AND MEXICO


CITY           SKY/WX    TMP DP  RH WIND       PRES   REMARKS
DENVER, CO     PTCLDY    32  30  92 SE12      29.95F WCI  23
GRAND CANYON,  PTCLDY    29  27  92 CALM      30.05F
HONOLULU, HI   PTCLDY    77  63  61 E7        30.14R
KAHULUI, MAUI  PTCLDY    73  64  73 SE7       30.12R
LAKE TAHOE, CA LGT SNOW  35  31  85 S9G17     29.98R FOG     WCI  28
LAS VEGAS, NV  PTCLDY    64  31  28 S6        29.85F
MAMMOTH LAKES, FAIR      36  28  73 NE3G9     30.01S
MEXICO CITY, M PTCLDY    59  45  58 SE3       30.30F
PHOENIX, AZ    MOCLDY    66  36  32 E8        29.87S
PORTLAND, OR   LGT RAIN  47  44  90 SW8       29.94R
RENO, NV       LGT RAIN  43  36  76 SW6       29.97S
SALT LAKE CITY MOCLDY    50  32  50 SE9       29.90F
SAN DIEGO, CA  MOCLDY    60  53  77 CALM      30.06F
SAN FRANCISCO, MOCLDY    53  48  83 W14       30.12R
SAN JOSE, CA   MOCLDY    54  49  83 W8        30.12S
SEATTLE, WA    CLOUDY    46  43  89 S7        29.87R
TIJUANA, MEX   CLOUDY    57  50  77 W6        30.08S

$$

STATION/POSITION TIME  TEMP    WIND        PRES    VSBY  WAVE
                       AIR SEA DIR/SP/G                  HT/PER
                 (UTC) (F)     (DEG/KT/KT) (MB)    (MI)  (FT/S)
POINT ARGUELLO B NOT AVBL
WEST SANTA BARBA 0650   56 56  320/ 14/ 17 1019.0F         6/12
POINT CONCEPTION NOT AVBL
EAST SANTA BARBA 0740          280/ 21/ 25 1017.5F
SANTA MONICA BAY 0750   59 60  300/ 16/ 19 1016.5S         6/12



USA.gov is the U.S. government's official web portal to all federal, state and local government web resources and services.